Location: St. Louis
(38.6270°N, 90.1994°W)
Time: 06:47:48
(UTC-06:00)

A-11 Canister half - Pass Details

Date: 12 December 2021
Orbit: 1524 x 1684 km, 47.3° (Epoch: 17 January)

Event Time Altitude Azimuth Distance (km) Brightness Sun altitude
Rises 04:19:57 0° 298° (WNW) 4,940 - -32.2°
Reaches altitude 10° 04:23:10 10° 300° (WNW) 3,944 - -31.6°
Exits shadow 04:30:13 50° 314° (NW) 2,030 9.2 -30.2°
Maximum altitude 04:33:20 77° 27° (NNE) 1,695 9.1 -29.6°
Drops below altitude 10° 04:43:12 10° 113° (ESE) 3,835 12.0 -27.7°
Sets 04:46:16 0° 115° (ESE) 4,798 12.8 -27.1°
